Torna al catalogo

FENGYUN 1C DEB

AttivoPO
NORAD 29865·DEBRIS·🇨🇳 China

Lanciato May 10, 1999 da Taiyuan Satellite Launch Center

Loading…

Prossimi Passaggi (prossime 24 ore)

TLE

AggiornatoSource: Space-Track

Epoca: Sep 14, 2026, 14:30 UTC

1 29865U 99025FK  26257.60446184  .00005920  00000-0  61425-3 0  9997
2 29865  98.9298 206.0975 0108766 346.3964 189.4131 14.86115730 48510

Traccia FENGYUN 1C DEB in tempo reale con AllMySat

Download on the App Store